| time (UTC) | temp F | wind direction | speed MPH | gust MPH | rain 1hr in | rain 24hr in | rain mn in | humidity % | barometer mb |
| 20260506084004 | 56 | 313 | 0.0 | 6.0 | 0.00 | 0.00 | 0.00 | 76 | 1038.7 |
| 20260506083003 | 56 | 342 | 3.0 | 13.0 | 0.00 | 0.00 | 0.00 | 78 | 1038.8 |
| 20260506082003 | 56 | 328 | 4.0 | 10.0 | 0.00 | 0.00 | 0.00 | 79 | 1039.0 |
| 20260506081003 | 56 | 339 | 1.0 | 10.0 | 0.00 | 0.00 | 0.00 | 79 | 1039.0 |
| 20260506073004 | 56 | 283 | 0.0 | 3.0 | 0.00 | 0.00 | 0.00 | 78 | 1039.4 |
| 20260506072003 | 56 | 340 | 0.0 | 5.0 | 0.00 | 0.00 | 0.00 | 77 | 1039.7 |
| 20260506071003 | 56 | 1 | 2.0 | 5.0 | 0.00 | 0.00 | 0.00 | 77 | 1039.8 |
| 20260506062003 | 58 | 308 | 0.0 | 4.0 | 0.00 | 0.00 | 0.00 | 71 | 1039.5 |
| 20260506061215 | 58 | 247 | 0.0 | 2.0 | 0.00 | 0.00 | 0.00 | 71 | 1039.4 |
| 20260506060216 | 59 | 288 | 0.0 | 3.0 | 0.00 | 0.00 | 0.00 | 70 | 1039.3 |
| 20260506051003 | 62 | 298 | 2.0 | 3.0 | 0.00 | 0.00 | 0.00 | 66 | 1039.2 |
| 20260506045003 | 63 | 330 | 1.0 | 8.0 | 0.00 | 0.00 | 0.00 | 63 | 1039.0 |
| 20260506044003 | 64 | 319 | 0.0 | 5.0 | 0.00 | 0.00 | 0.00 | 62 | 1038.9 |
| 20260506043003 | 64 | 322 | 2.0 | 7.0 | 0.00 | 0.00 | 0.00 | 62 | 1039.1 |
| 20260506042003 | 65 | 293 | 2.0 | 6.0 | 0.00 | 0.00 | 0.00 | 62 | 1039.1 |
| 20260506041003 | 65 | 330 | 3.0 | 11.0 | 0.00 | 0.00 | 0.00 | 60 | 1038.7 |
| 20260506040004 | 66 | 303 | 1.0 | 8.0 | 0.00 | 0.00 | 0.00 | 58 | 1039.1 |
| 20260506035213 | 66 | 349 | 0.0 | 3.0 | 0.00 | 0.00 | 0.00 | 55 | 1039.0 |
| 20260506030213 | 67 | 337 | 1.0 | 8.0 | 0.00 | 0.00 | 0.00 | 53 | 1038.7 |
| 20260506025214 | 67 | 287 | 0.0 | 9.0 | 0.00 | 0.00 | 0.00 | 53 | 1038.5 |
| 20260506024003 | 67 | 13 | 1.0 | 13.0 | 0.00 | 0.00 | 0.00 | 51 | 1038.8 |
| 20260506023003 | 68 | 6 | 4.0 | 8.0 | 0.00 | 0.00 | 0.00 | 49 | 1038.5 |
| 20260506022003 | 68 | 312 | 3.0 | 9.0 | 0.00 | 0.00 | 0.00 | 46 | 1038.6 |
| 20260506021213 | 68 | 334 | 3.0 | 6.0 | 0.00 | 0.00 | 0.00 | 45 | 1038.4 |
| 20260506020003 | 67 | 331 | 2.0 | 8.0 | 0.00 | 0.00 | 0.00 | 46 | 1038.1 |
| 20260506015003 | 67 | 357 | 3.0 | 6.0 | 0.00 | 0.00 | 0.00 | 48 | 1038.3 |
| 20260506014003 | 67 | 330 | 0.0 | 4.0 | 0.00 | 0.00 | 0.00 | 48 | 1038.4 |
| 20260506013003 | 68 | 275 | 0.0 | 5.0 | 0.00 | 0.00 | 0.00 | 45 | 1038.3 |
| 20260506012004 | 68 | 352 | 0.0 | 8.0 | 0.00 | 0.00 | 0.00 | 44 | 1038.3 |
| 20260506011213 | 68 | 356 | 2.0 | 9.0 | 0.00 | 0.00 | 0.00 | 44 | 1038.3 |
| 20260506010004 | 67 | 31 | 3.0 | 11.0 | 0.00 | 0.00 | 0.00 | 45 | 1038.3 |
| 20260506005003 | 67 | 354 | 2.0 | 17.0 | 0.00 | 0.00 | 0.00 | 46 | 1038.6 |
| 20260506004003 | 66 | 308 | 4.0 | 19.0 | 0.00 | 0.00 | 0.00 | 50 | 1038.5 |
| 20260506003217 | 66 | 342 | 4.0 | 13.0 | 0.00 | 0.00 | 0.00 | 51 | 1038.7 |
| 20260506002003 | 66 | 360 | 2.0 | 12.0 | 0.00 | 0.00 | 0.00 | 52 | 1039.0 |
| 20260506001003 | 65 | 345 | 0.0 | 10.0 | 0.00 | 0.00 | 0.00 | 52 | 1038.9 |
| 20260506000004 | 64 | 345 | 3.0 | 9.0 | 0.00 | 0.00 | 0.00 | 51 | 1038.9 |
| 20260505235003 | 63 | 351 | 4.0 | 10.0 | 0.00 | 0.00 | 0.00 | 53 | 1039.2 |
| 20260505234217 | 62 | 348 | 4.0 | 21.0 | 0.00 | 0.00 | 0.00 | 59 | 1039.2 |
| 20260505233003 | 61 | 349 | 2.0 | 8.0 | 0.00 | 0.00 | 0.00 | 65 | 1039.1 |
| 20260505232003 | 60 | 316 | 4.0 | 8.0 | 0.00 | 0.00 | 0.00 | 75 | 1039.2 |
| 20260505231003 | 58 | 334 | 2.0 | 8.0 | 0.00 | 0.00 | 0.00 | 83 | 1039.0 |
| 20260505230004 | 57 | 341 | 1.0 | 5.0 | 0.00 | 0.00 | 0.00 | 90 | 1039.4 |
| 20260505225003 | 57 | 357 | 2.0 | 6.0 | 0.00 | 0.00 | 0.00 | 93 | 1039.3 |
| 20260505224003 | 56 | 332 | 0.0 | 4.0 | 0.00 | 0.00 | 0.00 | 94 | 1039.4 |
| 20260505223003 | 56 | 298 | 0.0 | 2.0 | 0.00 | 0.00 | 0.00 | 94 | 1039.3 |
| 20260505222003 | 54 | 263 | 1.0 | 4.0 | 0.00 | 0.00 | 0.00 | 93 | 1039.4 |
| 20260505221003 | 53 | 225 | 0.0 | 4.0 | 0.00 | 0.00 | 0.00 | 94 | 1039.3 |
| 20260505220004 | 51 | 328 | 1.0 | 4.0 | 0.00 | 0.00 | 0.00 | 94 | 1039.4 |
| 20260505215004 | 50 | 286 | 1.0 | 7.0 | 0.00 | 0.00 | 0.00 | 93 | 1039.4 |
| 20260505214003 | 49 | 256 | 1.0 | 2.0 | 0.00 | 0.00 | 0.00 | 94 | 1039.5 |
| 20260505213003 | 49 | 231 | 0.0 | 3.0 | 0.00 | 0.00 | 0.00 | 94 | 1039.5 |
| 20260505212003 | 48 | 254 | 0.0 | 3.0 | 0.00 | 0.00 | 0.00 | 94 | 1039.4 |
| 20260505211216 | 46 | 306 | 1.0 | 2.0 | 0.00 | 0.00 | 0.00 | 93 | 1039.8 |
| 20260505210003 | 44 | 345 | 1.0 | 3.0 | 0.00 | 0.00 | 0.00 | 93 | 1039.7 |
| 20260505205004 | 42 | 191 | 0.0 | 1.0 | 0.00 | 0.00 | 0.00 | 93 | 1039.7 |
| 20260505204004 | 40 | 112 | 0.0 | 1.0 | 0.00 | 0.00 | 0.00 | 93 | 1039.8 |
| 20260505203003 | 39 | 225 | 0.0 | 1.0 | 0.00 | 0.00 | 0.00 | 92 | 1039.6 |
| 20260505201004 | 38 | 152 | 0.0 | 2.0 | 0.00 | 0.00 | 0.00 | 93 | 1039.4 |
| 20260505200003 | 38 | 305 | 0.0 | 2.0 | 0.00 | 0.00 | 0.00 | 92 | 1039.3 |
| 20260505195214 | 38 | 195 | 0.0 | 2.0 | 0.00 | 0.00 | 0.00 | 92 | 1039.2 |
| 20260505194004 | 38 | 205 | 1.0 | 2.0 | 0.00 | 0.00 | 0.00 | 92 | 1038.9 |
| 20260505193215 | 38 | 211 | 0.0 | 5.0 | 0.00 | 0.00 | 0.00 | 92 | 1039.2 |
| 20260505192003 | 37 | 35 | 0.0 | 2.0 | 0.00 | 0.00 | 0.00 | 87 | 1039.1 |
| 20260505191003 | 37 | 321 | 1.0 | 2.0 | 0.00 | 0.00 | 0.00 | 87 | 1039.1 |
| 20260505190213 | 37 | 225 | 0.0 | 1.0 | 0.00 | 0.00 | 0.00 | 87 | 1039.2 |
| 20260505185004 | 37 | 249 | 0.0 | 2.0 | 0.00 | 0.00 | 0.00 | 87 | 1039.2 |
| 20260505184215 | 37 | 224 | 0.0 | 4.0 | 0.00 | 0.00 | 0.00 | 87 | 1039.4 |
| 20260505183004 | 37 | 199 | 2.0 | 6.0 | 0.00 | 0.00 | 0.00 | 87 | 1039.5 |
| 20260505182004 | 37 | 201 | 0.0 | 6.0 | 0.00 | 0.00 | 0.00 | 87 | 1039.2 |
| 20260505181004 | 36 | 78 | 0.0 | 7.0 | 0.00 | 0.00 | 0.00 | 87 | 1039.3 |
| 20260505180214 | 36 | 236 | 1.0 | 9.0 | 0.00 | 0.00 | 0.00 | 87 | 1039.3 |
| 20260505175003 | 36 | 242 | 0.0 | 11.0 | 0.00 | 0.00 | 0.00 | 86 | 1039.4 |
| 20260505174003 | 36 | 229 | 1.0 | 4.0 | 0.00 | 0.00 | 0.00 | 86 | 1039.6 |
| 20260505173217 | 36 | 176 | 0.0 | 3.0 | 0.00 | 0.00 | 0.00 | 86 | 1039.5 |
| 20260505172003 | 37 | 239 | 0.0 | 2.0 | 0.00 | 0.00 | 0.00 | 86 | 1039.6 |
| 20260505171003 | 37 | 247 | 0.0 | 2.0 | 0.00 | 0.00 | 0.00 | 86 | 1039.4 |
| 20260505170004 | 37 | 0 | 0.0 | 0.0 | 0.00 | 0.00 | 0.00 | 86 | 1039.6 |
| 20260505165004 | 37 | 0 | 0.0 | 0.0 | 0.00 | 0.00 | 0.00 | 90 | 1040.0 |
| 20260505164003 | 38 | 301 | 0.0 | 2.0 | 0.00 | 0.00 | 0.00 | 90 | 1039.8 |
| 20260505163004 | 38 | 177 | 0.0 | 4.0 | 0.00 | 0.00 | 0.00 | 90 | 1040.1 |
| 20260505162004 | 38 | 186 | 0.0 | 3.0 | 0.00 | 0.00 | 0.00 | 90 | 1039.9 |
| 20260505161004 | 38 | 182 | 1.0 | 2.0 | 0.00 | 0.00 | 0.00 | 91 | 1040.1 |
| 20260505153213 | 39 | 346 | 0.0 | 2.0 | 0.00 | 0.00 | 0.00 | 90 | 1040.0 |
| 20260505152004 | 39 | 0 | 0.0 | 0.0 | 0.00 | 0.00 | 0.00 | 90 | 1040.4 |
| 20260505151003 | 39 | 28 | 0.0 | 2.0 | 0.00 | 0.00 | 0.00 | 89 | 1040.5 |
| 20260505125003 | 41 | 0 | 0.0 | 0.0 | 0.00 | 0.00 | 0.00 | 88 | 1041.6 |
| 20260505124214 | 41 | 270 | 0.0 | 1.0 | 0.00 | 0.00 | 0.00 | 87 | 1041.7 |
| 20260505123004 | 42 | 270 | 0.0 | 1.0 | 0.00 | 0.00 | 0.00 | 87 | 1041.8 |
| 20260505122003 | 42 | 287 | 0.0 | 1.0 | 0.00 | 0.00 | 0.00 | 87 | 1041.9 |
| 20260505121003 | 42 | 300 | 0.0 | 3.0 | 0.00 | 0.00 | 0.00 | 87 | 1042.0 |
| 20260505120005 | 42 | 270 | 0.0 | 1.0 | 0.00 | 0.00 | 0.00 | 86 | 1041.8 |
| 20260505115003 | 43 | 270 | 0.0 | 1.0 | 0.00 | 0.00 | 0.00 | 85 | 1042.0 |
| 20260505114214 | 43 | 247 | 0.0 | 1.0 | 0.00 | 0.00 | 0.00 | 85 | 1042.1 |
| 20260505113004 | 44 | 248 | 0.0 | 2.0 | 0.00 | 0.00 | 0.00 | 86 | 1042.5 |
| 20260505112216 | 44 | 303 | 0.0 | 2.0 | 0.00 | 0.00 | 0.00 | 86 | 1042.5 |
| 20260505111003 | 44 | 316 | 0.0 | 3.0 | 0.00 | 0.00 | 0.00 | 86 | 1042.8 |
| 20260505102004 | 46 | 345 | 0.0 | 9.0 | 0.00 | 0.00 | 0.00 | 85 | 1043.2 |
| 20260505101003 | 47 | 340 | 2.0 | 11.0 | 0.00 | 0.00 | 0.00 | 84 | 1043.4 |
| 20260505100214 | 47 | 314 | 0.0 | 11.0 | 0.00 | 0.00 | 0.00 | 84 | 1043.5 |
| 20260505095215 | 47 | 336 | 3.0 | 8.0 | 0.00 | 0.00 | 0.00 | 84 | 1043.5 |
| 20260505094003 | 48 | 344 | 2.0 | 14.0 | 0.00 | 0.00 | 0.00 | 84 | 1043.7 |
| 20260505093003 | 48 | 2 | 5.0 | 16.0 | 0.00 | 0.00 | 0.00 | 84 | 1043.6 |
| 20260505092004 | 48 | 346 | 6.0 | 17.0 | 0.00 | 0.00 | 0.00 | 83 | 1043.9 |
| 20260505091003 | 48 | 353 | 5.0 | 17.0 | 0.00 | 0.00 | 0.00 | 84 | 1044.0 |
| 20260505090214 | 49 | 329 | 6.0 | 17.0 | 0.00 | 0.00 | 0.00 | 84 | 1043.8 |
| 20260505085003 | 49 | 323 | 5.0 | 11.0 | 0.00 | 0.00 | 0.00 | 83 | 1043.9 |